• In Hungary
  • List of Countries
  • For 7 days
  • Water Temperature
  • Satellite Maps
  • Weather Map
  • News
  • Weather Widgets
  • user-avatar
    Login

    Hourly Weather Kumanovo

    Today, 25 September, Tuesday

    Time Temperature Precipitation Wind Pressure Humidity
    00:00 +8°C° 0 mm 3 mps 731 mmHg 76%
    01:00 +7°C° 0 mm 3 mps 731 mmHg 79%
    02:00 +7°C° 0 mm 3 mps 732 mmHg 79%
    03:00 +7°C° 0 mm 3 mps 732 mmHg 80%
    04:00 +5°C° 0 mm 3 mps 733 mmHg 80%
    05:00 +7°C° 0 mm 3 mps 733 mmHg 75%
    06:00 +8°C° 0 mm 3 mps 733 mmHg 69%
    07:00 +8°C° 0 mm 5 mps 734 mmHg 63%
    08:00 +10°C° 0 mm 5 mps 734 mmHg 53%
    09:00 +13°C° 0 mm 5 mps 734 mmHg 43%
    10:00 +14°C° 0 mm 5 mps 733 mmHg 33%
    11:00 +15°C° 0 mm 6 mps 733 mmHg 31%
    12:00 +16°C° 0 mm 6 mps 733 mmHg 28%
    13:00 +17°C° 0 mm 6 mps 733 mmHg 25%
    14:00 +16°C° 0 mm 6 mps 733 mmHg 27%
    15:00 +16°C° 0 mm 6 mps 733 mmHg 28%
    16:00 +15°C° 0 mm 6 mps 733 mmHg 30%
    17:00 +13°C° 0 mm 5 mps 733 mmHg 37%
    18:00 +10°C° 0 mm 4 mps 734 mmHg 44%
    19:00 +8°C° 0 mm 3 mps 735 mmHg 52%
    20:00 +7°C° 0 mm 3 mps 735 mmHg 55%
    21:00 +6°C° 0 mm 2 mps 736 mmHg 59%
    22:00 +6°C° 0 mm 2 mps 736 mmHg 63%
    23:00 +5°C° 0 mm 2 mps 736 mmHg 64%

    Tomorrow, 26 September, Wednesday

    Time Temperature Precipitation Wind Pressure Humidity
    00:00 +5°C° 0 mm 2 mps 736 mmHg 65%
    01:00 +4°C° 0 mm 2 mps 736 mmHg 67%
    02:00 +4°C° 0 mm 2 mps 736 mmHg 68%
    03:00 +4°C° 0 mm 2 mps 736 mmHg 69%
    04:00 +3°C° 0 mm 2 mps 736 mmHg 70%
    05:00 +5°C° 0 mm 2 mps 737 mmHg 64%
    06:00 +6°C° 0 mm 2 mps 737 mmHg 58%
    07:00 +7°C° 0 mm 2 mps 737 mmHg 52%
    08:00 +9°C° 0 mm 3 mps 737 mmHg 45%
    09:00 +12°C° 0 mm 4 mps 737 mmHg 38%
    10:00 +14°C° 0 mm 4 mps 737 mmHg 30%
    11:00 +15°C° 0 mm 5 mps 737 mmHg 28%
    12:00 +16°C° 0 mm 5 mps 736 mmHg 25%
    13:00 +17°C° 0 mm 5 mps 736 mmHg 22%
    14:00 +16°C° 0 mm 6 mps 736 mmHg 24%
    15:00 +16°C° 0 mm 6 mps 736 mmHg 25%
    16:00 +16°C° 0 mm 6 mps 735 mmHg 26%
    17:00 +13°C° 0 mm 5 mps 736 mmHg 32%
    18:00 +11°C° 0 mm 4 mps 736 mmHg 39%
    19:00 +8°C° 0 mm 3 mps 737 mmHg 45%
    20:00 +7°C° 0 mm 3 mps 737 mmHg 49%
    21:00 +5°C° 0 mm 3 mps 738 mmHg 53%
    22:00 +6°C° 0 mm 2 mps 738 mmHg 56%
    23:00 +5°C° 0 mm 2 mps 738 mmHg 57%

    Day after tomorrow, 27 September, Thursday

    Time Temperature Precipitation Wind Pressure Humidity
    00:00 +5°C° 0 mm 2 mps 738 mmHg 58%
    01:00 +4°C° 0 mm 2 mps 737 mmHg 59%
    02:00 +4°C° 0 mm 2 mps 737 mmHg 59%
    03:00 +4°C° 0 mm 2 mps 737 mmHg 60%
    04:00 +4°C° 0 mm 2 mps 737 mmHg 60%
    05:00 +5°C° 0 mm 2 mps 737 mmHg 55%
    06:00 +6°C° 0 mm 2 mps 737 mmHg 50%
    07:00 +8°C° 0 mm 2 mps 737 mmHg 45%
    08:00 +10°C° 0 mm 3 mps 736 mmHg 38%
    09:00 +13°C° 0 mm 3 mps 736 mmHg 31%
    10:00 +17°C° 0 mm 4 mps 736 mmHg 24%
    11:00 +18°C° 0 mm 4 mps 735 mmHg 22%
    12:00 +19°C° 0 mm 4 mps 735 mmHg 20%
    13:00 +21°C° 0 mm 4 mps 734 mmHg 17%
    14:00 +20°C° 0 mm 4 mps 734 mmHg 18%
    15:00 +20°C° 0 mm 4 mps 733 mmHg 19%
    16:00 +20°C° 0 mm 4 mps 733 mmHg 20%
    17:00 +17°C° 0 mm 4 mps 733 mmHg 27%
    18:00 +13°C° 0 mm 3 mps 733 mmHg 33%
    19:00 +10°C° 0 mm 2 mps 733 mmHg 40%
    20:00 +9°C° 0 mm 2 mps 733 mmHg 42%
    21:00 +8°C° 0 mm 2 mps 733 mmHg 44%
    22:00 +8°C° 0 mm 2 mps 734 mmHg 46%
    23:00 +7°C° 0 mm 2 mps 733 mmHg 46%

    28 September, Friday

    Time Temperature Precipitation Wind Pressure Humidity
    00:00 +8°C° 0 mm 1 mps 733 mmHg 47%
    01:00 +7°C° 0 mm 1 mps 732 mmHg 48%
    02:00 +7°C° 0 mm 1 mps 732 mmHg 49%
    03:00 +7°C° 0 mm 1 mps 732 mmHg 49%
    04:00 +6°C° 0 mm 1 mps 731 mmHg 50%
    05:00 +8°C° 0 mm 1 mps 731 mmHg 45%
    06:00 +10°C° 0 mm 1 mps 731 mmHg 41%
    07:00 +11°C° 0 mm 1 mps 731 mmHg 36%
    08:00 +14°C° 0 mm 1 mps 731 mmHg 30%
    09:00 +18°C° 0 mm 1 mps 730 mmHg 24%
    10:00 +21°C° 0 mm 1 mps 730 mmHg 18%
    11:00 +21°C° 0 mm 2 mps 729 mmHg 16%
    12:00 +23°C° 0 mm 2 mps 729 mmHg 14%
    13:00 +24°C° 0 mm 2 mps 728 mmHg 12%
    14:00 +24°C° 0 mm 2 mps 728 mmHg 13%
    15:00 +24°C° 0 mm 2 mps 727 mmHg 13%
    16:00 +24°C° 0 mm 2 mps 727 mmHg 13%
    17:00 +20°C° 0 mm 2 mps 727 mmHg 16%
    18:00 +18°C° 0 mm 1 mps 727 mmHg 19%
    19:00 +14°C° 0 mm 1 mps 727 mmHg 23%
    20:00 +13°C° 0 mm 1 mps 727 mmHg 23%
    21:00 +13°C° 0 mm 1 mps 727 mmHg 24%
    22:00 +12°C° 0 mm 1 mps 727 mmHg 25%
    23:00 +12°C° 0 mm 1 mps 727 mmHg 25%

    29 September, Saturday

    Time Temperature Precipitation Wind Pressure Humidity
    00:00 +11°C° 0 mm 1 mps 726 mmHg 26%
    01:00 +11°C° 0 mm 1 mps 726 mmHg 26%
    02:00 +11°C° 0 mm 1 mps 726 mmHg 27%
    03:00 +11°C° 0 mm 1 mps 726 mmHg 27%
    04:00 +10°C° 0 mm 1 mps 726 mmHg 28%
    05:00 +12°C° 0 mm 1 mps 726 mmHg 26%
    06:00 +13°C° 0 mm 1 mps 726 mmHg 25%
    07:00 +15°C° 0 mm 1 mps 726 mmHg 23%
    08:00 +18°C° 0 mm 1 mps 726 mmHg 22%
    09:00 +21°C° 0 mm 1 mps 726 mmHg 20%
    10:00 +23°C° 0 mm 2 mps 726 mmHg 18%
    11:00 +24°C° 0 mm 2 mps 726 mmHg 19%
    12:00 +25°C° 0 mm 2 mps 725 mmHg 19%
    13:00 +26°C° 0 mm 3 mps 725 mmHg 19%
    14:00 +26°C° 0 mm 3 mps 725 mmHg 20%
    15:00 +25°C° 0 mm 3 mps 725 mmHg 22%
    16:00 +25°C° 0 mm 4 mps 725 mmHg 24%
    17:00 +21°C° 0 mm 3 mps 725 mmHg 31%
    18:00 +18°C° 0 mm 3 mps 726 mmHg 39%
    19:00 +16°C° 0 mm 3 mps 726 mmHg 47%
    20:00 +15°C° 0 mm 2 mps 726 mmHg 51%
    21:00 +14°C° 0 mm 2 mps 726 mmHg 55%
    22:00 +13°C° 0 mm 2 mps 726 mmHg 59%
    23:00 +13°C° 0 mm 2 mps 727 mmHg 61%

    30 September, Sunday

    Time Temperature Precipitation Wind Pressure Humidity
    00:00 +12°C° 0 mm 2 mps 727 mmHg 62%
    01:00 +12°C° 0 mm 2 mps 727 mmHg 64%
    02:00 +12°C° 0 mm 2 mps 727 mmHg 66%
    03:00 +10°C° 0 mm 2 mps 727 mmHg 69%
    04:00 +10°C° 0 mm 2 mps 727 mmHg 71%
    05:00 +12°C° 0 mm 2 mps 727 mmHg 68%
    06:00 +13°C° 0 mm 2 mps 728 mmHg 65%
    07:00 +14°C° 0 mm 2 mps 728 mmHg 62%
    08:00 +16°C° 0 mm 2 mps 728 mmHg 54%
    09:00 +18°C° 0 mm 2 mps 728 mmHg 47%
    10:00 +20°C° 0 mm 2 mps 728 mmHg 40%
    11:00 +21°C° 0 mm 2 mps 728 mmHg 37%
    12:00 +23°C° 0 mm 2 mps 727 mmHg 34%
    13:00 +24°C° 0 mm 3 mps 727 mmHg 32%
    14:00 +22°C° 0 mm 3 mps 727 mmHg 34%
    15:00 +22°C° 0 mm 3 mps 727 mmHg 37%
    16:00 +21°C° 0 mm 3 mps 726 mmHg 40%
    17:00 +19°C° 0 mm 2 mps 727 mmHg 47%
    18:00 +17°C° 0 mm 2 mps 727 mmHg 55%
    19:00 +15°C° 0 mm 1 mps 727 mmHg 63%
    20:00 +15°C° 0.1 mm 1 mps 727 mmHg 66%
    21:00 +15°C° 0.1 mm 1 mps 727 mmHg 70%
    22:00 +14°C° 0.1 mm 1 mps 727 mmHg 74%
    23:00 +14°C° 0 mm 1 mps 726 mmHg 77%
    Show more